Wind_Speed
27 27 27 29 31 31 29 29 29 31 32 30 28 29 31 31 30 30 30 30 28 28 30 29 26 22 19 19 20 20 20 19 17 16 16 18 19 20 20 20 19 19 18 19 19 19 18 17 17 18 17 16 17 20 20 20 20 20 21 21 21 19 20 21 22 21 21 23 26 25 23 22 23 25 27 25 24 25 27 26 25 24 21 19 20 20 21
23 25 26 28 29 31 31 29 27 26 27 28 27 29 31 32 32 32 32 31 30 31 31 31 30 29 27 25 23 22 20 19 17 17 17 18 19 20 21 20 20 19 19 20 20 20 20 20 19 20 19 19 19 20 21 21 21 21 21 22 22 21 21 22 22 22 21 22 24 25 25 25 24 24 27 26 25 27 28 28 27 25 21 21 22 22 22
24 25 25 25 25 27 28 29 28 26 25 25 26 27 29 31 33 34 33 33 33 34 33 30 29 30 29 27 24 23 22 21 20 19 19 20 20 21 21 21 20 19 19 20 21 22 22 22 21 21 22 22 22 22 22 23 22 22 22 22 22 22 22 22 22 23 23 23 23 24 26 26 24 24 27 27 26 28 29 30 29 25 23 24 24 22 22
26 28 27 27 27 26 25 27 26 24 24 24 24 25 26 27 30 32 33 33 32 32 32 30 28 26 26 25 25 25 25 25 24 21 20 21 22 22 22 22 21 21 20 20 21 22 22 22 23 23 23 23 24 24 24 23 23 23 22 22 22 23 22 22 23 25 26 26 25 24 25 27 26 26 28 29 29 29 31 32 29 26 26 27 26 23 22
26 27 28 28 28 27 26 26 25 22 22 22 23 23 24 25 26 28 30 31 32 30 30 30 29 27 26 25 25 25 26 26 26 23 21 22 23 23 23 23 23 23 22 22 22 23 23 24 24 24 24 24 25 25 24 23 23 23 23 22 23 23 23 22 24 26 26 26 26 26 26 27 28 29 30 31 31 32 33 32 29 28 29 29 27 24 23
26 26 27 27 27 28 27 26 25 24 23 24 23 22 22 23 24 25 26 28 30 30 29 28 27 26 25 24 24 25 26 26 26 24 23 24 25 25 25 24 24 25 25 24 24 24 25 25 26 26 26 26 26 25 24 23 23 23 23 23 24 24 23 22 24 28 28 26 27 28 27 27 28 31 33 34 35 35 33 31 29 30 31 31 29 26 24
24 25 26 27 28 29 28 27 26 26 26 26 25 23 22 24 25 25 24 25 28 30 30 29 28 27 25 24 25 26 26 26 26 25 24 25 26 27 27 26 26 26 26 27 27 26 26 27 27 28 28 27 27 26 24 23 23 24 24 24 24 25 24 23 25 28 28 26 26 27 28 27 27 30 32 34 37 35 31 29 29 30 32 32 31 29 27
24 24 25 26 27 28 29 28 28 28 28 28 27 24 22 21 23 25 24 23 24 27 29 30 30 30 28 26 26 27 27 27 27 26 26 26 27 27 27 27 27 27 28 28 29 28 28 28 29 29 29 28 28 27 26 24 23 24 24 25 25 25 24 24 26 27 28 27 26 28 29 28 28 29 31 35 36 34 32 30 30 31 33 34 34 31 30
25 24 24 25 26 27 28 28 27 27 28 28 28 27 25 22 21 23 24 23 23 24 25 26 28 30 29 28 27 28 28 28 28 28 27 27 28 27 27 27 28 28 28 29 30 31 31 31 31 30 29 28 27 26 27 26 24 24 25 25 26 26 25 25 27 27 27 28 28 29 29 30 31 31 32 35 36 35 35 34 32 32 34 36 35 34 33
24 24 24 24 25 26 25 25 25 24 24 24 26 27 28 26 24 22 23 25 24 24 23 23 24 26 27 27 27 28 28 28 28 28 27 27 28 27 26 27 29 29 29 30 31 32 33 33 33 32 30 29 27 26 27 26 25 24 24 24 26 26 25 25 25 25 26 28 30 32 31 30 32 33 34 37 37 34 35 35 33 33 34 36 36 35 35
24 23 23 23 23 24 25 24 23 22 21 20 21 23 24 24 23 22 22 24 25 24 23 22 22 22 22 23 24 26 28 29 29 28 28 28 28 27 27 28 29 30 30 30 31 32 33 34 34 33 31 29 28 27 27 26 25 24 24 24 23 23 22 21 22 25 28 30 33 36 35 33 35 36 36 38 39 36 35 37 35 33 34 36 36 36 36
25 24 23 22 20 20 23 24 22 21 20 18 19 20 21 21 21 20 20 22 23 23 22 21 21 20 19 18 19 22 25 28 29 29 29 28 28 27 27 28 29 29 30 31 31 32 32 33 33 32 30 29 29 28 27 26 24 24 24 24 23 23 23 22 22 24 27 29 30 33 35 35 37 39 39 40 41 39 37 38 35 32 32 34 33 34 36
25 25 25 24 20 16 16 19 20 20 19 19 20 21 21 21 20 20 20 20 21 21 21 20 19 19 17 16 16 19 24 26 27 27 28 29 29 28 28 28 29 29 30 31 32 31 31 31 31 31 30 29 28 28 28 26 25 24 24 24 24 25 25 25 24 23 23 26 28 30 32 35 38 42 44 44 43 40 38 38 35 31 30 30 31 33 34
23 24 26 27 26 20 16 16 18 18 18 19 20 21 20 20 20 20 20 20 20 20 20 19 19 19 18 17 17 20 23 25 27 27 28 29 29 29 29 30 30 30 30 31 32 32 32 31 31 31 30 29 29 29 28 28 26 25 25 25 25 26 25 25 24 22 20 24 30 32 32 36 39 42 44 43 41 39 39 38 35 33 32 31 32 33 33
21 21 21 23 25 23 19 17 18 17 16 15 15 16 17 17 18 19 20 21 21 21 21 21 20 20 19 19 19 20 22 24 26 27 27 28 30 30 29 29 31 33 32 32 32 33 33 33 33 32 31 29 29 29 29 29 28 27 26 25 26 27 26 24 22 21 20 21 28 32 30 32 37 40 41 39 38 39 40 40 38 36 34 33 34 33 33
18 18 18 19 19 19 18 18 18 17 15 13 13 14 15 15 15 16 17 18 18 19 19 20 21 21 21 21 21 21 22 23 24 26 27 27 27 27 26 26 28 29 29 30 32 33 35 35 35 33 31 30 30 30 30 30 29 28 28 27 26 26 26 25 22 21 20 19 22 28 30 29 31 34 36 36 36 37 39 39 37 35 34 35 35 35 35
13 12 14 16 16 15 15 17 19 19 17 16 15 14 14 14 13 13 13 14 14 14 15 16 17 19 20 21 22 22 23 24 25 26 26 25 25 24 24 24 23 23 23 25 27 30 33 36 37 35 32 30 30 30 30 30 30 30 29 27 26 26 26 25 23 22 22 20 18 21 27 30 30 32 34 35 35 36 36 36 36 36 36 36 35 36 38
9 7 9 13 15 14 13 14 15 16 15 13 12 12 12 13 13 13 13 13 13 13 13 14 15 16 17 18 19 21 23 24 25 24 23 23 25 25 25 24 22 22 23 25 27 29 30 32 35 36 34 31 30 30 29 29 28 29 29 27 25 24 24 25 24 24 24 23 21 18 20 24 27 30 32 32 32 34 36 38 38 36 35 34 36 37 38
9 7 7 9 13 15 14 12 10 8 8 8 9 9 9 10 10 11 11 11 11 12 13 13 14 15 15 16 17 18 19 22 24 24 23 24 27 29 29 29 27 25 25 26 29 32 32 31 32 33 33 32 31 29 29 30 29 27 27 26 23 22 23 23 24 25 25 25 25 23 20 20 21 22 24 26 27 28 31 34 34 34 34 34 35 34 34
10 9 7 8 10 12 12 10 7 6 6 6 6 5 6 6 7 7 9 10 11 12 13 14 15 15 16 16 17 17 17 18 20 23 25 27 29 30 32 33 33 30 29 30 32 34 35 34 33 32 32 32 31 29 28 30 29 26 25 23 19 20 23 23 22 23 24 25 25 25 23 21 19 19 20 20 20 21 23 26 28 29 31 31 31 29 28
7 7 8 9 11 11 10 8 7 6 5 3 2 3 4 5 6 8 9 11 12 13 14 15 16 17 18 19 20 20 21 21 21 21 23 25 27 29 31 34 35 34 34 34 35 36 37 37 36 35 34 33 31 29 28 29 27 25 24 24 21 21 25 26 24 23 23 24 25 26 25 24 22 21 21 22 22 22 22 23 24 25 26 26 27 27 27
8 8 9 9 9 8 7 5 4 3 2 2 3 4 5 6 7 9 11 13 14 16 17 18 19 20 21 22 23 24 24 25 24 24 24 24 25 26 27 30 32 34 36 37 37 37 38 38 38 37 35 34 32 30 28 28 27 26 26 27 27 27 28 29 29 28 28 27 27 27 27 26 24 24 25 26 27 28 28 28 28 28 28 27 28 29 31
8 7 7 7 6 6 5 3 2 1 1 2 4 5 6 7 9 10 12 14 16 17 19 21 22 23 25 26 27 28 28 28 28 28 28 28 27 27 27 28 29 31 33 35 37 37 37 38 38 37 35 34 33 32 30 29 29 29 30 30 31 32 32 32 32 31 32 32 32 32 32 31 31 30 30 29 29 30 31 32 32 33 33 33 32 34 35
8 7 7 6 5 5 4 2 2 1 1 2 4 5 7 8 10 11 13 14 16 18 20 21 23 25 26 28 29 30 31 32 32 31 30 31 31 31 31 31 31 31 31 32 33 34 34 35 37 36 34 33 33 33 32 31 30 31 33 34 34 35 36 36 36 36 35 35 36 36 37 37 36 36 36 35 34 34 33 34 34 34 34 34 34 35 36
8 7 7 6 6 5 4 3 3 3 3 4 5 6 7 8 10 11 13 15 17 19 21 23 24 25 26 27 29 30 32 33 34 34 33 32 33 33 33 34 34 34 34 34 34 34 34 34 35 35 34 32 32 33 33 33 32 32 34 35 37 38 38 38 37 37 38 39 39 39 39 39 39 38 38 38 38 38 38 38 38 38 38 38 38 38 38
9 8 8 7 7 6 6 5 5 5 6 6 8 9 10 11 12 13 15 17 19 22 24 25 25 25 25 26 26 27 29 31 32 33 34 33 33 33 33 34 35 36 37 37 37 37 37 36 36 35 34 32 31 32 33 33 33 33 34 34 36 38 39 40 39 38 38 39 41 41 41 41 40 39 39 39 39 39 39 39 40 40 40 40 41 41 42
9 8 8 7 7 7 6 6 7 8 9 10 11 12 14 15 16 16 18 19 21 23 25 26 26 26 25 24 24 24 25 26 27 29 31 33 33 33 32 33 34 36 37 38 39 40 40 40 40 39 38 37 35 34 34 35 34 34 34 35 35 36 37 39 39 38 37 37 38 39 40 40 39 38 37 38 38 39 39 39 39 38 38 38 38 38 39
8 8 8 8 8 8 8 9 10 11 12 13 14 14 15 16 17 18 19 20 22 24 26 27 26 25 24 23 23 22 22 22 23 24 26 28 30 32 32 32 32 33 35 37 39 40 41 42 42 42 42 42 40 39 38 39 39 38 37 37 37 38 38 38 38 37 36 35 35 36 36 36 36 36 36 35 35 36 36 36 36 35 35 35 35 35 35
8 8 8 8 9 10 10 11 11 12 13 13 14 15 15 16 17 18 19 21 22 23 25 26 25 24 22 21 21 21 21 20 20 21 21 22 24 26 28 30 30 30 32 34 37 39 41 42 43 43 44 44 43 42 40 41 41 41 41 40 40 40 40 40 40 39 38 38 37 37 36 36 36 36 36 35 35 35 35 36 36 35 36 36 36 35 35
7 8 8 9 9 10 10 11 11 11 11 12 13 14 15 16 17 18 19 20 22 23 24 26 26 24 22 21 20 20 20 20 20 19 20 20 21 22 23 25 26 28 29 30 33 36 38 40 42 43 44 45 45 44 42 41 42 42 42 42 42 41 41 41 41 41 40 39 39 39 38 38 38 38 37 37 37 37 38 38 37 37 38 39 39 38 37
7 7 8 8 8 9 9 9 10 10 11 12 13 14 16 16 17 19 20 21 21 23 24 25 26 25 24 22 21 21 21 21 21 21 21 21 21 21 22 23 24 25 26 27 28 31 33 36 38 40 42 43 45 46 44 42 41 42 43 42 42 42 41 41 41 40 40 39 38 38 37 36 36 36 36 36 36 36 37 38 37 36 37 38 39 39 38
7 7 7 7 8 8 8 8 9 10 12 13 14 15 16 17 18 19 20 21 21 23 24 25 25 25 25 24 23 22 22 22 22 22 22 23 23 23 23 24 24 24 25 26 26 27 28 30 33 36 38 39 41 43 44 42 41 41 42 42 42 42 41 41 40 40 39 38 38 37 36 35 35 35 35 35 34 34 35 36 36 35 35 36 36 37 37
8 8 8 8 9 9 9 10 11 12 13 14 15 16 17 18 19 20 20 21 22 23 24 25 26 25 25 25 24 24 23 23 23 23 23 24 25 25 25 25 25 24 24 25 26 26 26 26 27 30 32 33 35 37 39 39 38 39 40 41 42 42 42 42 41 41 40 39 39 38 38 37 37 37 37 36 36 35 35 35 35 35 35 35 35 35 35
8 9 9 10 9 10 11 12 12 13 13 14 15 17 18 19 20 21 21 22 22 23 24 25 26 26 26 26 25 25 25 24 24 24 24 24 25 26 26 26 26 25 25 25 25 25 25 24 24 25 26 28 29 30 31 32 33 34 36 38 40 41 41 42 42 42 42 41 40 40 39 39 39 39 39 38 38 37 37 37 36 36 36 36 36 35 36
8 9 10 10 10 10 11 12 13 14 15 16 17 18 19 20 21 21 22 22 23 23 23 24 26 26 26 26 26 26 25 25 25 25 25 25 25 25 26 26 26 25 25 25 25 25 24 24 24 23 23 24 25 25 25 25 26 27 29 31 34 37 39 40 41 41 42 42 42 41 41 40 40 40 40 40 40 40 39 39 38 38 38 38 37 37 37
9 9 9 10 10 10 11 12 13 14 15 16 18 19 20 21 21 22 23 23 23 24 24 24 25 27 27 28 27 27 26 26 27 27 26 26 25 26 26 26 26 25 24 24 24 24 23 23 23 23 22 22 22 22 22 23 23 23 23 24 27 31 34 36 37 38 39 40 41 42 42 41 41 41 40 41 41 41 40 40 39 39 39 39 38 38 38
9 9 9 9 9 10 11 12 13 15 16 17 18 20 21 21 22 23 23 24 24 24 24 25 25 26 27 28 28 28 27 27 27 28 28 27 26 26 26 25 25 25 24 23 23 23 22 21 22 22 21 21 21 21 21 22 21 21 21 21 23 25 28 29 31 32 35 36 38 39 40 40 40 40 40 40 40 40 40 40 39 39 39 39 38 38 38
8 8 8 8 9 10 11 13 14 16 17 18 19 20 21 22 23 23 24 24 24 25 25 25 26 26 27 28 28 28 28 28 28 28 28 27 26 26 25 23 23 24 23 23 22 22 22 21 21 20 20 20 20 20 20 20 20 20 20 21 22 23 24 25 25 25 27 29 32 34 35 36 37 38 38 38 38 38 37 37 37 37 37 37 36 36 36
7 7 8 8 9 11 12 14 15 16 18 19 20 21 22 23 23 24 24 25 25 25 26 26 27 27 27 28 28 28 28 28 28 28 28 27 26 26 24 22 21 23 23 21 21 21 20 20 20 19 18 18 19 19 18 18 18 18 19 19 20 22 23 23 23 22 21 22 25 27 30 31 32 33 33 34 35 35 34 34 34 34 34 34 33 33 32
6 6 7 9 10 12 13 14 16 17 18 19 20 21 22 23 24 24 25 25 26 26 26 26 27 28 28 28 28 28 28 28 28 28 28 28 27 25 23 21 21 21 21 20 20 20 19 18 18 18 17 17 17 17 17 17 17 17 17 17 18 19 20 21 22 22 21 20 21 24 26 27 27 28 28 29 30 31 31 31 31 31 31 31 30 30 29
5 6 7 9 11 12 13 15 16 17 18 19 20 21 22 23 24 25 25 25 26 26 26 27 27 28 28 29 29 29 29 29 28 28 28 28 27 26 23 21 20 20 20 20 19 19 19 18 16 16 16 15 15 15 15 15 15 15 16 16 17 18 19 19 20 21 21 20 20 22 24 25 24 25 25 26 27 28 28 28 28 28 28 28 28 28 27
5 7 8 10 11 12 14 15 16 17 18 20 21 22 23 24 24 25 25 26 26 26 27 27 28 28 29 29 29 29 29 29 28 28 28 27 27 27 24 20 19 21 21 20 18 18 18 18 17 17 17 16 15 14 13 13 13 14 15 15 15 16 16 17 18 20 21 20 20 20 22 23 23 23 23 24 25 25 25 26 26 26 26 26 26 26 25
6 8 9 10 12 13 14 15 16 18 19 20 21 22 23 24 25 26 26 26 26 27 27 27 28 28 29 29 29 29 29 29 29 28 27 27 27 26 24 22 21 21 21 19 18 17 18 18 18 18 18 17 17 16 14 13 13 13 13 14 15 15 15 16 17 18 19 19 19 19 19 20 21 22 22 23 23 24 24 24 24 24 24 24 24 24 23
7 8 9 10 12 13 14 16 17 18 19 20 21 22 24 25 25 26 26 26 27 27 27 28 28 29 29 28 28 28 28 28 29 28 28 27 26 26 24 23 23 22 20 19 18 18 18 18 19 19 18 19 18 18 17 16 15 14 14 13 14 14 15 15 16 17 18 18 18 17 17 17 19 20 20 21 22 22 23 22 22 22 22 22 22 21 21
7 9 10 11 13 14 15 16 18 19 20 21 21 22 24 25 26 26 27 27 27 27 28 28 28 28 28 28 28 28 28 28 28 28 27 27 26 25 25 24 24 24 23 23 23 21 20 20 20 20 19 19 19 19 19 19 17 17 16 16 15 14 14 14 14 16 17 17 17 16 16 16 17 19 20 20 20 21 21 21 20 20 20 20 19 19 19
8 10 11 13 14 15 16 18 19 19 20 21 22 23 24 25 26 27 27 27 27 28 28 28 28 28 28 28 28 28 28 28 27 27 27 26 26 25 25 25 25 25 25 25 24 23 22 21 21 21 21 21 21 20 20 20 20 19 18 18 17 17 16 15 14 15 15 16 16 16 16 15 15 17 19 20 20 19 19 19 19 19 19 19 19 19 19
11 12 13 14 15 16 17 18 19 19 20 21 21 22 23 24 25 26 27 27 28 28 28 28 27 27 27 28 28 28 27 28 28 27 27 27 27 26 26 26 26 26 25 23 22 23 24 25 24 23 23 23 23 22 22 22 21 21 20 19 19 19 18 18 17 16 16 16 15 15 15 15 14 15 17 19 20 19 19 18 19 19 20 20 19 19 19
13 14 15 15 16 16 17 18 19 19 20 20 21 22 23 24 25 26 27 28 28 28 28 28 28 27 27 28 28 28 27 27 28 28 28 28 28 27 26 26 27 27 25 22 22 26 30 31 29 26 24 23 23 23 23 23 23 22 21 21 20 20 20 20 19 18 18 17 16 15 15 15 14 14 15 18 20 20 19 19 19 19 20 20 20 20 20
14 14 15 15 15 16 17 19 19 19 19 20 21 22 23 24 25 26 27 27 27 28 28 28 28 27 28 28 29 28 27 27 27 28 29 29 29 27 27 27 28 28 27 27 29 32 34 32 30 27 25 24 24 23 24 24 24 23 22 22 21 21 21 21 20 20 19 18 17 16 16 16 15 14 14 17 19 20 20 19 19 19 20 21 21 21 21
14 14 14 14 14 15 17 18 18 19 19 20 21 22 23 24 25 26 27 27 27 27 28 28 28 28 28 29 29 28 28 28 27 28 28 29 30 29 28 27 28 29 31 33 34 34 32 30 27 26 25 25 25 24 23 23 23 24 23 22 21 21 21 21 20 20 19 18 17 17 16 16 16 16 15 16 19 20 20 19 18 20 21 22 22 22 22
14 14 13 14 14 15 16 17 18 19 20 21 22 23 24 25 26 27 27 28 28 28 28 28 28 28 29 29 29 28 28 28 28 28 28 29 30 29 29 28 29 30 32 34 34 32 29 28 27 27 26 25 25 25 24 22 22 22 22 22 22 21 21 20 20 20 20 19 18 17 16 16 16 17 17 17 18 20 21 19 19 20 22 23 24 24 24
13 13 13 13 14 15 16 17 18 20 21 22 24 25 26 26 27 28 28 28 29 29 29 29 29 29 29 29 29 28 28 28 28 28 29 29 30 30 30 30 31 31 32 33 33 31 29 27 27 27 27 25 24 23 22 22 21 21 21 22 22 21 21 20 19 20 20 19 18 17 16 16 15 16 16 17 18 20 22 21 21 21 22 24 25 25 25
Wind_Direction
236 236 237 239 239 239 241 244 246 246 245 242 239 240 243 243 243 246 249 249 250 253 258 263 264 261 261 264 268 272 273 269 266 267 268 267 267 266 265 267 269 270 272 272 272 275 276 276 276 278 279 277 274 274 275 276 276 277 277 276 280 284 281 273 268 270 271 267 266 267 264 260 255 247 240 237 239 244 248 251 253 253 253 251 249 244 239
235 235 235 239 242 241 240 242 245 246 245 244 243 244 246 245 246 249 250 249 250 253 258 263 263 262 263 266 267 266 263 263 267 266 264 264 264 263 263 264 267 269 269 269 267 267 268 270 270 272 274 274 272 273 275 277 278 280 281 283 285 286 284 280 275 275 278 278 272 265 260 259 258 248 238 234 237 242 245 248 251 253 253 250 251 248 240
235 235 235 237 240 241 239 239 242 246 247 248 248 249 248 246 245 247 248 249 251 254 256 260 262 261 261 261 261 258 256 261 268 267 262 260 260 261 263 264 266 268 268 267 266 264 264 266 267 268 270 271 271 271 273 275 277 278 280 282 284 284 283 282 282 280 278 277 275 268 260 258 258 251 239 234 238 242 243 246 249 251 251 250 252 250 243
237 238 239 239 240 242 241 239 240 244 247 248 248 247 246 245 244 244 244 247 251 255 255 256 259 259 257 257 257 257 256 260 265 264 258 256 257 258 261 263 265 267 268 268 268 267 266 266 266 266 266 268 269 270 271 274 276 276 277 278 277 279 280 279 281 281 278 275 273 270 262 254 252 253 246 239 238 241 243 245 247 249 250 251 252 250 245
237 239 240 241 241 243 243 239 238 241 246 249 248 246 245 246 245 244 244 245 248 253 255 256 257 256 256 256 256 256 256 257 257 257 253 253 255 256 257 259 262 265 267 267 268 268 268 267 267 266 265 265 267 269 271 272 274 274 275 275 274 275 278 278 277 276 276 274 270 266 262 254 250 255 254 244 236 237 241 244 246 248 249 251 252 251 248
241 241 241 241 242 243 244 242 238 239 243 247 247 247 247 250 251 250 248 247 248 250 252 254 254 252 252 255 256 255 255 256 254 251 249 250 252 253 254 255 257 261 264 265 266 267 267 268 268 268 267 266 266 268 271 271 271 272 273 274 274 275 275 274 273 272 270 271 268 263 261 256 250 254 257 246 233 233 239 244 246 247 249 250 250 250 248
245 245 245 244 244 245 246 246 243 240 241 244 246 250 252 252 254 255 253 250 250 250 249 248 248 248 250 253 254 253 253 254 252 250 249 250 250 251 250 251 252 256 260 262 263 265 266 267 268 269 269 269 269 271 274 273 272 273 274 275 275 276 274 270 270 270 267 267 266 261 260 257 251 252 253 241 228 229 238 245 247 248 248 249 248 247 247
248 247 248 247 247 246 247 249 247 243 243 244 245 251 255 254 255 255 252 250 251 251 250 248 247 249 251 250 250 250 250 249 249 248 248 250 251 250 249 249 250 253 256 258 260 262 264 266 268 269 271 273 274 275 274 274 273 273 275 276 275 276 275 271 270 270 268 265 262 259 258 256 252 250 244 232 229 236 245 250 250 248 247 247 248 247 246
248 247 248 247 247 246 247 249 249 248 247 247 246 249 254 258 261 257 251 248 251 253 253 252 249 249 248 246 244 245 246 246 245 246 246 248 251 251 249 249 250 251 254 256 257 259 262 264 267 269 271 274 275 275 273 272 272 273 274 276 276 275 274 272 273 272 267 261 259 262 264 259 253 249 239 229 233 244 250 250 250 248 245 246 247 247 246
249 248 247 247 246 245 244 245 247 248 250 250 249 249 253 257 262 261 253 248 250 254 255 254 252 248 245 243 243 244 246 247 246 245 245 246 249 250 249 249 250 251 252 255 256 257 259 261 265 268 270 273 273 272 271 271 271 272 273 275 277 278 275 270 265 260 254 249 250 255 260 256 250 246 237 227 230 242 247 245 246 245 243 244 246 247 247
250 250 248 248 248 246 242 242 246 248 249 251 252 250 250 252 256 258 254 249 248 251 253 254 254 251 248 246 247 246 246 247 246 245 245 245 246 248 248 249 249 250 251 253 255 257 258 260 263 266 269 271 272 271 271 271 272 272 272 273 276 278 277 272 262 252 245 241 238 238 239 238 237 237 232 226 230 243 248 244 244 244 241 242 246 248 250
247 249 248 247 246 244 240 238 241 244 246 249 252 250 247 247 248 251 251 248 246 248 250 252 254 255 252 252 253 250 245 243 243 244 244 245 246 247 248 249 250 251 252 253 255 257 259 261 263 265 267 269 271 271 271 272 272 271 270 270 271 271 273 276 277 272 262 253 244 238 235 234 231 227 223 224 234 245 246 241 242 245 242 242 246 249 250
247 248 247 244 240 241 241 237 236 240 245 248 250 248 246 245 246 248 248 246 245 247 249 251 253 256 255 252 250 249 245 242 241 242 243 245 247 248 249 250 251 252 253 254 255 257 258 260 262 264 265 267 269 271 272 273 273 272 270 269 268 270 273 276 282 287 280 265 256 249 245 242 235 226 221 227 237 244 243 240 244 248 246 245 246 247 246
246 246 245 242 240 243 248 244 239 242 246 247 246 247 246 245 246 248 248 247 246 246 248 250 252 254 255 251 247 246 246 244 243 243 244 246 248 250 252 254 254 254 253 254 255 256 257 259 261 263 265 267 268 271 273 275 275 274 272 269 267 267 272 276 278 284 282 263 250 247 246 246 240 231 228 233 239 241 241 242 247 252 251 247 246 245 243
240 240 239 238 237 240 242 239 237 240 245 245 244 245 247 248 249 251 252 253 252 251 252 254 255 255 256 255 252 250 249 249 248 247 247 248 250 253 256 258 259 257 255 254 254 255 256 258 261 263 265 267 268 270 273 274 276 276 274 271 269 266 268 272 272 276 278 261 242 239 244 247 242 236 234 237 240 242 245 248 251 252 249 244 245 248 249
234 234 233 234 235 237 236 232 230 236 244 246 244 245 248 251 253 255 256 258 258 257 257 258 259 259 259 259 258 256 254 253 253 252 251 250 253 258 263 264 264 261 259 257 256 256 256 258 260 262 265 267 268 269 271 273 274 275 274 272 271 268 266 268 268 268 273 269 248 237 239 244 243 241 240 242 245 248 250 252 250 246 241 239 242 246 249
220 224 226 226 226 229 231 228 226 232 240 244 243 245 248 250 251 253 256 258 259 261 261 261 262 263 263 262 261 259 258 257 255 255 256 257 261 265 263 260 260 263 264 262 262 261 259 258 258 259 261 263 264 266 268 271 272 273 273 272 270 268 265 264 263 260 261 264 259 244 237 238 240 241 242 244 245 245 245 246 246 245 242 239 236 237 241
201 205 212 214 215 220 226 226 224 226 232 236 239 242 245 248 249 251 255 259 262 265 267 269 269 269 269 268 266 263 261 259 257 255 255 259 261 260 256 253 255 260 261 262 263 265 264 261 259 258 259 260 261 262 265 267 268 269 270 268 266 263 261 259 259 258 255 255 257 253 242 235 234 236 237 238 238 239 241 243 244 240 233 226 223 226 232
191 184 189 199 203 210 218 221 218 217 221 227 234 240 245 249 252 255 260 266 270 275 278 280 281 280 279 279 278 274 268 265 260 254 252 256 258 257 257 259 260 259 257 258 259 261 262 263 263 262 262 262 263 263 263 264 264 264 266 266 264 261 259 256 255 256 255 253 254 255 253 246 237 233 234 233 233 235 237 237 234 227 221 220 223 228 232
180 184 196 196 185 188 199 203 198 194 198 207 220 233 247 259 266 273 276 280 284 287 288 289 288 288 286 286 286 285 282 277 270 261 255 255 258 259 261 264 265 263 259 256 255 256 258 261 263 264 264 265 266 265 263 263 262 260 260 260 257 256 259 259 258 259 260 259 257 258 260 257 246 234 230 230 232 234 232 228 225 227 229 232 235 238 240
161 173 183 181 169 166 172 177 179 186 196 212 238 262 279 286 291 293 294 294 294 293 293 293 292 290 288 287 286 286 286 284 281 275 268 262 260 260 260 261 264 265 262 258 256 256 257 258 260 262 263 265 266 265 262 261 259 257 256 252 245 243 250 253 253 254 257 258 257 257 259 259 254 247 241 238 238 238 234 228 226 228 230 231 234 236 238
132 139 144 148 148 145 148 155 163 182 230 287 305 308 309 308 303 301 301 300 299 297 297 296 294 293 291 289 287 286 285 283 282 280 277 274 270 266 262 259 259 260 260 258 257 257 258 258 259 261 262 264 265 264 261 258 254 249 250 252 250 246 247 248 247 246 245 246 245 243 245 248 252 253 252 249 247 245 242 239 237 237 235 234 234 237 241
120 124 122 121 122 121 120 124 124 118 312 315 319 319 317 315 314 313 312 310 309 308 305 302 300 297 294 292 290 287 286 284 283 280 277 274 272 269 267 265 261 258 258 257 255 255 258 260 261 262 262 263 263 262 260 257 252 246 244 246 250 251 252 252 252 249 246 244 241 238 238 242 247 249 249 248 249 249 249 249 249 250 251 249 248 249 251
105 107 104 102 102 103 102 100 96 64 354 341 342 339 334 333 332 330 327 324 322 321 319 315 310 305 300 295 292 289 286 284 283 282 279 275 272 269 267 266 264 262 261 260 258 257 258 259 261 261 261 261 262 262 260 256 253 249 245 243 244 247 249 250 252 252 252 251 249 247 245 246 248 248 247 246 246 247 248 250 251 253 254 254 253 252 252
88 87 88 88 88 86 81 71 56 32 14 5 358 352 345 341 338 336 334 333 332 331 329 325 319 313 307 300 295 291 288 285 283 282 281 278 274 272 268 265 264 262 261 261 260 259 258 258 258 258 257 257 257 258 258 255 253 252 250 247 244 244 246 248 249 250 251 253 254 254 254 254 253 252 251 250 250 250 250 250 251 252 252 252 252 251 251
85 81 78 76 72 65 55 44 30 15 1 350 343 337 332 328 326 327 328 331 333 334 334 332 327 321 315 308 302 296 292 289 286 284 283 281 278 274 271 268 266 264 262 261 260 259 258 257 257 256 255 253 253 253 254 253 252 251 251 251 249 247 247 249 250 250 250 251 253 254 256 257 257 256 255 254 255 255 255 255 255 255 255 256 256 256 256
75 67 59 51 41 30 18 4 354 346 340 334 329 327 325 323 322 323 324 327 330 332 334 335 333 329 322 317 312 307 301 296 292 288 286 284 281 278 275 271 268 265 265 264 262 261 260 259 258 257 256 254 253 254 254 253 253 252 252 253 253 251 249 248 249 250 251 250 250 251 252 254 255 256 256 256 256 257 257 257 258 258 259 259 259 259 260
45 36 28 20 11 2 355 350 346 341 336 331 328 326 325 324 324 324 325 326 329 331 333 336 337 334 328 323 319 315 312 307 301 296 293 290 287 285 282 278 273 268 265 264 264 264 263 263 262 261 260 258 256 256 257 257 257 256 255 255 256 256 255 252 251 252 253 253 252 251 251 251 252 252 253 254 255 257 258 259 259 260 261 261 262 262 263
23 17 11 5 360 354 351 348 343 338 334 331 329 329 329 329 330 329 328 328 328 330 332 335 338 337 332 327 323 321 320 316 311 306 302 299 296 293 290 287 283 277 270 265 264 263 264 264 264 264 263 262 260 259 260 261 260 259 259 259 259 259 260 259 258 257 259 260 260 258 258 257 257 257 257 257 257 259 260 261 262 263 263 264 264 264 265
9 5 0 356 352 347 343 339 337 335 334 334 334 335 336 336 335 333 332 330 330 331 332 335 338 340 338 333 328 325 324 323 320 316 313 308 304 300 297 294 292 288 282 275 269 265 263 263 263 264 264 265 263 262 261 262 262 262 262 262 262 262 262 262 262 262 263 264 265 265 265 265 265 264 264 263 263 264 264 263 264 266 267 267 267 267 267
360 356 350 345 340 336 333 333 335 338 340 341 342 341 340 340 338 336 335 334 333 333 334 336 338 341 341 338 334 331 328 327 325 324 323 319 314 309 304 300 296 293 291 286 279 273 268 266 264 264 264 264 264 263 263 263 263 263 263 263 263 263 263 263 263 262 263 265 266 266 266 267 267 267 267 266 266 267 266 266 266 266 267 267 268 269 269
349 345 341 337 334 332 334 339 343 346 347 347 345 343 341 341 340 338 336 336 335 334 334 336 338 341 341 340 338 334 332 330 328 327 326 324 321 317 313 308 303 299 295 291 287 282 277 273 270 268 266 265 265 264 263 262 262 262 262 262 262 262 262 262 262 261 261 261 262 262 263 264 264 265 265 265 265 264 265 265 266 266 265 265 266 267 267
343 342 340 339 339 341 344 349 352 352 350 348 345 343 342 341 339 338 337 336 336 336 335 336 338 340 340 339 337 336 334 332 330 328 327 325 324 322 319 316 312 308 304 298 293 289 285 281 276 273 271 270 268 267 265 263 262 260 259 259 259 259 259 259 260 260 259 258 258 258 258 259 260 261 262 263 263 262 262 263 264 263 263 263 262 262 263
336 336 336 338 342 346 349 351 352 351 350 349 346 343 342 340 339 338 337 336 335 336 336 335 335 336 337 337 336 336 335 333 330 329 328 326 324 322 320 319 317 315 312 307 302 298 294 289 284 279 276 274 273 272 271 268 265 262 259 258 258 257 257 257 257 257 257 257 257 256 255 255 256 257 258 259 260 260 261 262 262 262 262 262 262 261 261
332 334 335 337 342 348 351 351 351 349 348 347 344 342 340 340 339 338 336 335 335 336 336 335 334 334 334 335 335 335 334 332 330 329 329 327 324 321 320 320 319 318 317 314 310 305 301 296 291 287 283 279 277 276 275 272 269 266 263 260 258 257 256 255 254 255 255 256 256 255 254 253 253 253 254 255 256 256 257 258 259 260 260 261 261 261 261
329 331 333 336 342 349 352 351 350 349 347 345 343 341 340 339 339 337 336 334 334 334 335 335 334 332 332 333 333 334 333 332 330 329 329 328 325 322 321 321 320 320 321 320 317 312 307 300 294 291 287 284 281 278 276 274 273 271 269 265 262 260 258 256 254 253 253 254 254 254 253 253 252 252 251 252 253 253 254 255 256 257 257 258 259 259 259
325 327 332 338 343 348 351 350 348 347 347 344 341 339 338 338 338 337 336 335 334 334 334 334 333 332 331 331 331 332 331 330 330 330 329 329 326 323 322 322 320 321 324 325 323 320 315 308 301 296 292 288 285 281 278 276 275 275 274 272 268 265 265 263 259 255 253 253 253 253 253 253 253 252 252 252 252 252 252 253 254 254 255 256 257 257 257
321 323 331 340 345 348 351 350 348 346 344 342 339 338 337 337 337 336 336 335 334 333 333 333 332 331 331 330 330 330 330 330 330 330 329 328 326 323 324 324 322 322 326 328 327 326 323 317 309 303 297 292 288 285 282 280 278 277 276 275 273 272 273 272 269 264 258 256 256 256 254 253 254 254 254 254 254 254 254 253 253 254 254 255 255 256 256
321 328 339 347 350 351 351 349 346 344 342 340 338 337 337 336 336 336 336 335 334 333 333 332 331 330 329 329 330 330 330 330 330 329 328 327 325 323 323 324 321 322 327 331 330 328 325 320 314 309 303 298 293 289 285 282 280 278 277 276 276 276 276 276 275 272 267 263 263 263 261 258 256 256 257 257 257 256 256 255 255 255 255 255 255 255 255
325 337 346 350 350 351 350 347 345 343 341 339 338 337 337 337 336 335 335 335 334 333 332 331 330 329 329 329 329 330 330 330 330 329 328 327 324 322 321 320 318 321 327 331 330 329 330 328 324 319 313 306 300 294 290 286 282 279 277 276 275 275 275 276 277 277 274 269 267 268 268 265 263 261 261 260 259 259 258 257 257 257 256 256 256 256 255
336 346 352 352 351 350 349 346 345 343 341 340 339 339 338 337 336 335 335 335 334 333 332 331 330 329 329 329 330 330 330 331 331 330 329 328 325 322 319 315 313 316 323 327 328 330 334 335 335 335 331 323 313 304 296 291 287 283 280 277 275 275 276 277 278 278 276 273 270 268 269 268 267 265 264 263 261 260 259 258 257 256 256 255 255 254 252
349 354 356 355 353 352 349 347 345 344 342 341 341 340 339 338 336 335 335 334 333 332 332 330 329 329 329 330 331 331 330 330 331 331 330 329 327 324 320 314 308 310 315 319 323 328 332 334 336 340 341 338 334 328 319 310 302 296 291 288 285 284 283 281 279 277 275 273 271 269 269 268 267 266 264 261 259 258 257 256 254 253 252 251 250 248 246
360 359 358 356 353 351 348 345 344 343 342 341 341 340 339 338 337 336 335 334 333 332 331 330 329 329 330 331 331 331 331 330 330 331 331 330 328 325 321 314 307 306 310 313 315 318 322 325 327 330 333 334 334 335 335 331 324 315 306 299 294 292 290 287 284 280 277 275 272 269 268 266 265 263 262 260 258 256 254 252 250 249 247 245 243 242 241
359 356 354 352 349 347 345 343 342 341 341 340 340 339 338 338 337 337 335 334 332 331 330 329 329 329 330 331 331 331 330 330 330 331 331 331 329 326 322 315 309 306 307 310 311 310 310 311 314 318 321 324 327 329 331 332 331 328 323 316 308 303 300 296 290 285 281 277 273 270 267 265 263 261 259 256 254 253 251 249 247 245 242 239 238 238 239
352 348 346 344 343 342 342 341 341 339 339 339 339 338 337 337 338 337 335 333 332 330 329 329 329 329 330 330 331 331 330 330 331 331 330 329 329 327 322 316 310 306 304 306 307 305 301 300 303 305 309 312 316 319 322 324 326 327 328 327 324 321 316 310 303 295 287 282 276 271 267 263 261 260 258 254 251 249 247 246 244 241 238 236 235 237 240
340 339 338 337 337 338 339 340 339 338 338 338 337 337 336 336 336 336 335 333 332 330 328 328 329 329 329 329 329 330 330 330 330 329 328 327 326 323 319 315 310 306 304 306 307 306 302 298 295 295 297 300 303 306 311 314 316 318 321 322 324 325 325 322 317 308 298 290 283 276 269 264 260 258 257 254 249 245 243 243 242 239 236 235 235 237 241
332 332 332 332 333 334 336 337 337 337 336 336 336 337 336 336 335 335 335 334 332 329 328 328 328 328 327 327 329 330 330 330 329 328 327 325 323 320 317 313 309 306 305 306 308 310 310 306 299 292 289 290 292 295 299 302 305 307 310 313 316 319 322 323 322 317 309 301 294 286 278 270 263 257 255 253 248 242 238 239 243 242 239 237 236 238 241
327 327 327 328 330 331 333 334 336 336 337 337 337 337 337 336 335 336 336 335 333 329 327 327 328 327 326 326 328 330 330 329 327 326 325 325 323 320 316 311 307 304 302 301 304 308 311 310 303 293 285 282 284 287 290 293 295 297 300 303 305 309 313 316 318 317 313 307 301 295 287 279 272 262 254 250 247 241 236 238 244 247 245 240 237 238 240
323 323 324 325 327 329 331 333 335 336 337 337 337 337 337 337 336 336 335 334 333 330 327 326 326 325 324 325 326 328 328 327 325 323 323 323 323 320 317 312 307 302 298 298 302 306 309 308 303 294 286 282 282 284 286 287 288 289 291 294 296 300 303 307 311 313 313 309 304 299 292 285 279 271 257 248 243 239 235 238 247 252 248 241 236 236 238
319 320 321 323 325 328 330 332 333 335 336 336 336 336 337 336 335 335 335 334 332 330 328 326 325 323 323 323 324 325 325 324 323 322 321 321 322 321 319 315 309 304 301 300 303 306 306 303 301 298 292 286 283 284 285 286 285 284 284 286 288 291 295 298 302 306 309 309 306 301 296 289 283 278 267 253 243 237 236 242 251 254 248 240 235 234 236
316 318 319 321 324 328 330 332 333 334 335 335 334 335 336 336 335 334 334 333 331 330 328 326 324 323 322 322 323 322 322 322 322 321 321 320 321 320 318 314 310 307 305 304 306 307 305 300 299 299 297 291 285 282 282 283 284 283 282 281 282 285 288 291 294 298 303 306 305 302 299 293 286 280 274 262 249 240 239 247 256 255 246 238 234 234 235
314 315 318 321 324 328 331 333 333 333 333 333 332 332 334 334 334 334 333 331 329 329 329 327 325 323 322 322 321 320 320 320 320 320 319 319 318 317 315 313 310 309 308 306 306 306 304 300 297 297 296 293 287 283 280 280 280 281 282 282 282 282 283 286 290 294 298 301 301 301 300 297 291 284 278 269 257 247 245 252 258 255 244 236 234 234 235
Height
5685 5687 5689 5689 5689 5690 5692 5693 5694 5695 5697 5699 5701 5702 5702 5703 5705 5706 5706 5707 5709 5710 5711 5712 5713 5714 5715 5716 5716 5717 5718 5719 5719 5720 5720 5721 5721 5722 5721 5721 5720 5720 5720 5721 5720 5720 5720 5721 5721 5721 5722 5724 5724 5724 5725 5727 5728 5728 5729 5731 5733 5735 5736 5735 5735 5736 5738 5740 5740 5740 5740 5739 5739 5740 5742 5744 5746 5746 5747 5748 5749 5749 5751 5751 5750 5751 5751
5682 5684 5685 5685 5686 5687 5689 5691 5692 5693 5694 5696 5698 5699 5699 5700 5702 5703 5703 5705 5706 5707 5708 5709 5710 5711 5712 5713 5714 5715 5715 5716 5717 5717 5718 5718 5719 5719 5719 5719 5719 5719 5719 5719 5719 5718 5719 5719 5719 5720 5720 5721 5722 5723 5723 5724 5725 5726 5727 5729 5730 5732 5733 5732 5732 5733 5734 5735 5736 5736 5735 5735 5736 5737 5738 5741 5743 5742 5743 5744 5744 5747 5749 5748 5747 5747 5748
5679 5680 5681 5682 5683 5683 5685 5687 5689 5690 5691 5693 5695 5696 5696 5697 5698 5699 5700 5701 5703 5703 5704 5706 5707 5708 5709 5710 5711 5712 5712 5713 5714 5715 5715 5716 5716 5717 5717 5717 5717 5717 5717 5717 5717 5716 5716 5717 5717 5718 5718 5719 5720 5720 5721 5721 5722 5724 5725 5726 5727 5728 5729 5729 5729 5729 5730 5730 5731 5732 5731 5731 5733 5734 5736 5739 5739 5739 5739 5740 5741 5744 5746 5744 5744 5744 5745
5675 5676 5677 5679 5680 5681 5682 5684 5686 5687 5689 5690 5691 5692 5693 5693 5694 5695 5697 5699 5700 5700 5700 5702 5703 5705 5706 5707 5707 5708 5709 5710 5711 5712 5712 5713 5713 5714 5715 5715 5715 5715 5715 5715 5714 5714 5714 5714 5715 5715 5716 5716 5717 5718 5718 5719 5720 5721 5722 5723 5724 5725 5725 5727 5727 5726 5726 5726 5727 5727 5728 5728 5730 5731 5733 5735 5736 5735 5736 5737 5739 5742 5741 5740 5741 5742 5743
5672 5673 5674 5676 5677 5678 5679 5681 5682 5684 5686 5687 5687 5688 5689 5690 5691 5692 5693 5695 5696 5696 5697 5699 5700 5701 5702 5703 5704 5705 5705 5706 5708 5709 5709 5710 5710 5711 5712 5712 5712 5712 5712 5712 5712 5711 5711 5711 5712 5712 5713 5713 5714 5715 5716 5716 5717 5717 5719 5720 5721 5722 5722 5723 5724 5723 5724 5724 5724 5723 5724 5725 5727 5728 5729 5731 5732 5732 5733 5735 5737 5738 5738 5737 5739 5740 5740
5670 5671 5671 5673 5674 5675 5676 5678 5679 5682 5683 5683 5684 5685 5686 5687 5688 5689 5690 5692 5693 5693 5694 5695 5696 5697 5699 5700 5701 5701 5702 5703 5704 5705 5706 5707 5707 5708 5709 5710 5710 5710 5709 5709 5709 5709 5708 5708 5709 5709 5710 5711 5711 5712 5713 5714 5714 5714 5715 5717 5717 5718 5719 5720 5720 5720 5720 5721 5720 5720 5720 5722 5723 5724 5725 5726 5727 5728 5730 5732 5734 5734 5734 5735 5736 5737 5737
5667 5667 5668 5670 5671 5672 5674 5675 5676 5678 5680 5680 5681 5682 5683 5684 5685 5686 5687 5688 5689 5690 5691 5692 5692 5693 5695 5696 5697 5698 5699 5700 5701 5702 5703 5704 5704 5705 5706 5706 5707 5707 5707 5706 5706 5706 5706 5706 5706 5706 5707 5708 5708 5709 5710 5711 5711 5711 5712 5713 5714 5715 5716 5717 5717 5716 5716 5717 5718 5717 5718 5719 5720 5721 5720 5721 5722 5725 5727 5729 5730 5730 5731 5732 5733 5734 5734
5663 5664 5665 5666 5668 5669 5670 5671 5673 5675 5676 5677 5678 5679 5679 5681 5682 5683 5683 5685 5686 5686 5687 5688 5689 5690 5691 5693 5694 5694 5696 5697 5698 5699 5700 5700 5701 5701 5702 5703 5703 5704 5704 5703 5703 5703 5703 5703 5703 5703 5704 5705 5706 5706 5706 5707 5708 5708 5708 5709 5710 5711 5712 5713 5713 5712 5712 5713 5714 5715 5715 5716 5717 5717 5717 5717 5719 5721 5723 5725 5726 5727 5728 5728 5729 5730 5731
5659 5661 5662 5663 5665 5666 5667 5668 5669 5671 5673 5674 5675 5676 5676 5678 5679 5680 5680 5681 5682 5683 5684 5684 5685 5686 5687 5688 5690 5691 5692 5693 5694 5695 5696 5697 5697 5698 5698 5699 5699 5700 5700 5700 5700 5700 5700 5700 5700 5700 5701 5702 5703 5703 5703 5704 5704 5705 5705 5705 5706 5707 5708 5708 5708 5709 5708 5708 5709 5710 5711 5712 5713 5713 5714 5715 5716 5717 5719 5720 5722 5723 5724 5724 5726 5727 5727
5656 5658 5659 5660 5662 5664 5665 5666 5666 5668 5669 5671 5672 5673 5674 5674 5675 5676 5677 5678 5679 5680 5681 5681 5681 5682 5683 5684 5685 5687 5689 5690 5690 5691 5692 5693 5693 5694 5695 5695 5695 5696 5696 5696 5696 5696 5696 5696 5696 5696 5697 5698 5699 5700 5700 5700 5701 5701 5701 5702 5702 5702 5703 5704 5704 5705 5704 5704 5705 5705 5706 5707 5708 5709 5710 5712 5712 5713 5715 5716 5718 5719 5720 5721 5722 5723 5724
5653 5655 5656 5658 5660 5661 5662 5663 5664 5666 5667 5668 5669 5670 5671 5671 5672 5673 5674 5675 5676 5677 5678 5678 5679 5679 5679 5679 5681 5683 5684 5685 5686 5687 5688 5689 5690 5690 5691 5691 5691 5692 5692 5692 5693 5692 5692 5692 5692 5693 5694 5694 5695 5696 5696 5696 5697 5697 5698 5698 5698 5698 5698 5699 5699 5700 5700 5700 5701 5702 5702 5703 5704 5704 5706 5707 5708 5709 5711 5712 5714 5716 5717 5717 5718 5719 5720
5650 5652 5654 5656 5657 5658 5659 5660 5662 5663 5664 5665 5666 5667 5668 5669 5670 5670 5671 5672 5673 5674 5675 5676 5676 5676 5676 5676 5677 5679 5680 5680 5681 5683 5684 5685 5686 5687 5687 5687 5687 5688 5688 5688 5689 5689 5688 5688 5689 5689 5690 5690 5691 5691 5692 5692 5693 5694 5694 5694 5695 5695 5695 5694 5695 5694 5694 5695 5697 5698 5699 5699 5699 5700 5701 5702 5703 5705 5706 5708 5710 5712 5713 5714 5715 5716 5717
5648 5650 5652 5653 5654 5655 5657 5658 5660 5661 5662 5662 5663 5664 5665 5666 5667 5668 5668 5669 5670 5671 5672 5673 5673 5673 5673 5673 5674 5675 5676 5676 5677 5679 5680 5681 5682 5682 5683 5683 5684 5684 5685 5685 5685 5685 5685 5685 5685 5685 5686 5686 5687 5687 5687 5688 5689 5690 5690 5691 5691 5692 5691 5692 5692 5691 5690 5691 5692 5694 5695 5695 5694 5695 5696 5697 5699 5701 5702 5704 5706 5708 5709 5711 5712 5712 5713
5645 5647 5648 5650 5652 5653 5655 5657 5658 5659 5659 5659 5660 5661 5663 5664 5664 5665 5666 5667 5668 5668 5669 5670 5670 5670 5670 5670 5671 5671 5672 5673 5673 5674 5675 5676 5677 5678 5679 5679 5680 5680 5680 5681 5681 5681 5682 5682 5681 5682 5682 5683 5683 5683 5683 5684 5685 5686 5687 5687 5688 5688 5688 5689 5689 5689 5690 5690 5690 5691 5692 5692 5691 5692 5693 5695 5696 5698 5698 5700 5702 5703 5705 5706 5707 5708 5709
5643 5644 5645 5647 5649 5651 5653 5655 5656 5657 5657 5658 5659 5660 5661 5661 5662 5663 5664 5664 5665 5666 5666 5667 5667 5668 5668 5668 5668 5668 5669 5669 5669 5670 5671 5672 5672 5673 5674 5675 5675 5675 5676 5677 5677 5678 5678 5678 5678 5678 5678 5679 5679 5679 5680 5680 5681 5681 5682 5683 5684 5684 5685 5686 5686 5686 5687 5687 5686 5687 5688 5688 5688 5689 5690 5692 5693 5693 5694 5695 5697 5699 5700 5701 5703 5704 5705
5640 5642 5644 5645 5647 5649 5651 5653 5654 5655 5656 5657 5658 5658 5659 5659 5660 5661 5661 5662 5663 5663 5663 5664 5664 5664 5665 5665 5666 5666 5665 5666 5666 5666 5667 5667 5668 5669 5670 5671 5671 5671 5672 5673 5673 5674 5674 5674 5674 5675 5675 5675 5675 5676 5676 5676 5677 5677 5678 5679 5680 5680 5681 5681 5682 5683 5683 5683 5682 5683 5683 5684 5684 5685 5686 5688 5689 5689 5689 5691 5692 5694 5695 5697 5698 5699 5700
5639 5640 5642 5644 5646 5648 5649 5651 5652 5654 5654 5655 5656 5657 5657 5658 5659 5659 5660 5660 5661 5661 5661 5661 5661 5662 5662 5662 5663 5663 5663 5663 5663 5663 5663 5664 5665 5665 5666 5667 5667 5667 5668 5669 5669 5669 5669 5669 5670 5671 5671 5671 5671 5672 5672 5672 5673 5673 5674 5675 5676 5676 5677 5677 5678 5679 5679 5680 5680 5679 5680 5680 5681 5682 5683 5684 5685 5685 5686 5687 5688 5689 5691 5692 5693 5694 5696
5638 5639 5641 5642 5645 5647 5648 5649 5651 5652 5653 5653 5654 5655 5656 5657 5657 5658 5658 5659 5659 5659 5659 5659 5659 5659 5659 5660 5660 5660 5660 5660 5660 5660 5661 5661 5662 5662 5663 5663 5663 5664 5664 5665 5665 5665 5665 5665 5665 5666 5667 5667 5667 5668 5668 5668 5669 5669 5670 5670 5671 5672 5673 5673 5674 5675 5675 5676 5677 5677 5677 5677 5678 5679 5679 5680 5681 5682 5683 5683 5684 5685 5687 5688 5689 5690 5691
5637 5639 5640 5642 5643 5645 5647 5649 5650 5651 5652 5652 5653 5654 5655 5655 5656 5656 5657 5657 5657 5657 5657 5657 5657 5657 5657 5657 5657 5657 5657 5657 5657 5657 5657 5658 5658 5659 5659 5659 5659 5660 5661 5661 5661 5661 5661 5661 5661 5661 5662 5662 5662 5663 5664 5664 5665 5665 5665 5666 5667 5668 5668 5669 5670 5671 5671 5672 5673 5674 5674 5675 5675 5676 5676 5676 5677 5678 5679 5679 5681 5682 5683 5684 5685 5686 5686
5637 5639 5641 5642 5643 5645 5647 5648 5649 5650 5651 5652 5653 5653 5654 5654 5655 5655 5655 5655 5656 5656 5655 5655 5655 5655 5655 5655 5655 5654 5654 5654 5654 5654 5654 5654 5654 5654 5654 5654 5654 5655 5656 5656 5657 5656 5656 5656 5657 5657 5657 5657 5658 5658 5659 5659 5660 5660 5661 5662 5663 5664 5664 5665 5666 5667 5668 5668 5669 5669 5670 5671 5672 5673 5673 5674 5674 5675 5676 5677 5678 5679 5680 5681 5682 5683 5683
5637 5639 5641 5642 5643 5644 5646 5647 5648 5649 5650 5651 5652 5653 5653 5653 5653 5653 5654 5654 5654 5654 5653 5653 5653 5653 5653 5652 5652 5652 5652 5652 5652 5651 5651 5651 5651 5651 5650 5650 5650 5651 5651 5651 5652 5652 5651 5651 5652 5652 5653 5653 5653 5653 5654 5654 5655 5656 5657 5657 5658 5660 5661 5662 5662 5663 5664 5665 5665 5666 5667 5668 5668 5669 5670 5671 5672 5672 5673 5674 5675 5676 5676 5677 5678 5679 5679
5639 5640 5641 5642 5643 5644 5646 5647 5648 5649 5650 5651 5651 5652 5652 5652 5652 5652 5652 5651 5651 5651 5651 5650 5650 5649 5649 5649 5648 5648 5648 5648 5648 5648 5648 5648 5648 5647 5646 5646 5646 5646 5646 5646 5647 5647 5646 5646 5648 5648 5649 5649 5649 5649 5649 5650 5651 5652 5652 5653 5654 5655 5656 5657 5658 5659 5660 5661 5662 5663 5663 5664 5665 5666 5666 5667 5668 5669 5670 5671 5671 5672 5673 5674 5674 5675 5675
5640 5641 5642 5643 5644 5645 5646 5647 5648 5649 5649 5650 5650 5650 5650 5650 5650 5650 5650 5649 5649 5649 5648 5647 5647 5646 5645 5645 5644 5644 5644 5644 5643 5643 5643 5643 5643 5643 5643 5642 5642 5642 5642 5642 5643 5642 5641 5641 5643 5644 5645 5644 5644 5645 5645 5646 5646 5647 5647 5648 5649 5651 5651 5652 5653 5654 5655 5656 5657 5658 5659 5659 5660 5661 5661 5662 5663 5664 5665 5666 5667 5667 5668 5669 5669 5670 5670
5641 5642 5643 5644 5645 5645 5646 5647 5648 5648 5649 5649 5649 5649 5649 5649 5648 5648 5648 5647 5647 5646 5645 5644 5643 5642 5641 5641 5640 5639 5639 5639 5638 5638 5638 5638 5638 5638 5638 5638 5638 5638 5638 5638 5638 5638 5637 5637 5638 5639 5640 5640 5639 5640 5641 5641 5641 5642 5642 5643 5644 5645 5646 5647 5648 5649 5650 5650 5651 5652 5653 5654 5654 5655 5656 5657 5658 5659 5660 5661 5662 5662 5662 5663 5663 5664 5664
5642 5643 5644 5644 5645 5646 5646 5647 5647 5648 5648 5648 5648 5648 5648 5648 5647 5647 5646 5645 5645 5644 5643 5642 5640 5639 5637 5636 5635 5634 5634 5633 5633 5632 5632 5631 5632 5632 5632 5632 5632 5633 5633 5633 5633 5633 5633 5633 5633 5634 5635 5635 5635 5635 5636 5637 5636 5637 5637 5638 5639 5640 5641 5642 5643 5644 5644 5644 5645 5646 5647 5648 5648 5649 5650 5652 5652 5653 5654 5655 5655 5656 5656 5656 5657 5658 5658
5643 5644 5644 5645 5645 5646 5646 5646 5647 5647 5647 5647 5647 5647 5646 5646 5646 5645 5644 5643 5643 5642 5641 5639 5637 5636 5634 5632 5631 5630 5629 5628 5627 5626 5625 5625 5625 5625 5625 5625 5626 5626 5626 5627 5627 5627 5627 5628 5628 5628 5629 5630 5631 5630 5631 5631 5632 5632 5632 5633 5634 5635 5635 5636 5637 5638 5637 5638 5639 5641 5642 5642 5642 5643 5644 5645 5646 5646 5647 5648 5649 5649 5650 5650 5651 5651 5652
5644 5644 5645 5645 5645 5646 5646 5646 5646 5646 5646 5646 5646 5645 5645 5644 5643 5643 5642 5641 5640 5639 5638 5636 5634 5632 5631 5629 5627 5626 5625 5624 5623 5621 5620 5619 5619 5619 5619 5619 5619 5620 5620 5620 5620 5620 5620 5621 5621 5622 5623 5624 5625 5625 5625 5625 5626 5627 5627 5628 5628 5629 5630 5631 5632 5632 5632 5633 5634 5634 5635 5636 5636 5637 5638 5639 5639 5640 5641 5642 5642 5643 5644 5644 5644 5645 5646
5644 5644 5644 5645 5645 5645 5645 5645 5645 5645 5645 5644 5644 5643 5643 5642 5641 5641 5640 5639 5638 5637 5636 5634 5632 5630 5628 5626 5625 5623 5622 5621 5619 5617 5616 5615 5614 5613 5613 5613 5613 5613 5613 5613 5613 5613 5614 5614 5614 5615 5615 5617 5618 5619 5619 5619 5619 5621 5622 5623 5623 5623 5624 5625 5626 5627 5627 5628 5628 5629 5629 5630 5630 5631 5632 5634 5634 5634 5635 5636 5636 5637 5638 5638 5637 5639 5640
5644 5644 5644 5644 5644 5644 5644 5644 5644 5644 5643 5643 5642 5642 5641 5641 5640 5639 5638 5637 5636 5635 5634 5632 5630 5628 5626 5624 5622 5621 5620 5618 5616 5615 5614 5612 5611 5609 5608 5607 5607 5607 5607 5607 5607 5607 5607 5607 5607 5608 5608 5608 5610 5612 5613 5613 5613 5614 5615 5616 5617 5617 5618 5619 5620 5621 5622 5622 5622 5624 5624 5624 5625 5626 5627 5628 5629 5629 5629 5630 5630 5631 5632 5631 5631 5634 5635
5644 5644 5644 5644 5644 5644 5644 5644 5643 5643 5643 5642 5641 5641 5640 5639 5638 5638 5637 5636 5634 5633 5632 5630 5628 5626 5624 5623 5621 5619 5617 5616 5614 5612 5611 5610 5608 5607 5605 5604 5602 5601 5601 5601 5600 5600 5600 5600 5600 5601 5600 5600 5602 5605 5606 5606 5606 5607 5609 5609 5610 5611 5612 5612 5613 5615 5615 5615 5616 5618 5619 5618 5619 5620 5620 5621 5622 5622 5622 5624 5626 5626 5625 5624 5626 5628 5629
5644 5644 5644 5644 5644 5644 5644 5643 5643 5642 5642 5641 5640 5639 5639 5638 5637 5636 5635 5634 5633 5631 5630 5628 5626 5624 5622 5620 5618 5617 5615 5613 5611 5610 5608 5607 5605 5604 5602 5601 5599 5598 5597 5596 5595 5594 5594 5594 5594 5594 5594 5593 5594 5596 5599 5599 5599 5600 5602 5602 5603 5604 5605 5605 5607 5608 5609 5610 5611 5612 5612 5612 5613 5613 5614 5615 5616 5616 5615 5617 5620 5621 5619 5618 5619 5621 5622
5644 5644 5644 5644 5644 5643 5643 5642 5642 5641 5640 5640 5639 5638 5637 5637 5636 5635 5633 5632 5631 5629 5628 5626 5624 5622 5620 5618 5616 5614 5613 5611 5609 5607 5606 5604 5602 5601 5599 5598 5596 5595 5593 5592 5590 5589 5589 5589 5589 5588 5588 5588 5587 5588 5591 5592 5593 5593 5594 5595 5596 5597 5598 5598 5600 5601 5602 5603 5604 5605 5606 5606 5606 5607 5607 5609 5610 5610 5609 5610 5613 5614 5613 5613 5614 5615 5615
5644 5643 5643 5643 5642 5642 5641 5641 5640 5640 5639 5639 5638 5637 5636 5635 5634 5633 5632 5631 5629 5628 5626 5624 5622 5620 5618 5616 5614 5612 5611 5609 5607 5605 5603 5601 5599 5598 5596 5594 5593 5591 5590 5588 5586 5585 5585 5585 5584 5583 5582 5582 5582 5582 5584 5585 5586 5586 5586 5587 5588 5589 5590 5591 5593 5594 5595 5596 5597 5598 5600 5600 5600 5600 5601 5602 5603 5603 5603 5604 5606 5607 5607 5608 5609 5609 5609
5643 5642 5642 5641 5641 5641 5640 5640 5639 5639 5638 5637 5637 5636 5635 5634 5633 5632 5630 5629 5628 5626 5624 5622 5620 5618 5616 5614 5612 5610 5608 5606 5604 5602 5601 5599 5597 5595 5593 5591 5589 5588 5586 5584 5582 5581 5581 5580 5580 5579 5578 5577 5577 5577 5578 5579 5579 5579 5579 5580 5581 5581 5582 5584 5585 5586 5588 5589 5590 5591 5593 5593 5593 5594 5595 5595 5596 5597 5597 5598 5600 5601 5601 5601 5602 5603 5603
5642 5641 5641 5640 5640 5639 5639 5638 5638 5637 5637 5636 5635 5634 5634 5633 5631 5630 5629 5627 5626 5624 5623 5621 5618 5616 5614 5612 5610 5608 5606 5604 5602 5600 5598 5596 5594 5592 5590 5588 5586 5585 5583 5581 5579 5578 5577 5576 5575 5575 5574 5573 5573 5573 5573 5573 5573 5573 5573 5574 5574 5574 5574 5576 5578 5579 5581 5582 5583 5584 5585 5586 5586 5587 5588 5588 5589 5590 5591 5592 5593 5594 5594 5595 5596 5596 5597
5640 5640 5640 5639 5639 5638 5638 5637 5637 5636 5636 5635 5634 5633 5632 5631 5630 5628 5627 5625 5624 5622 5621 5619 5617 5614 5612 5610 5608 5606 5604 5601 5599 5597 5595 5594 5592 5589 5588 5586 5584 5582 5581 5578 5576 5575 5574 5572 5571 5571 5570 5569 5569 5569 5569 5569 5568 5568 5569 5569 5569 5568 5567 5569 5571 5573 5574 5574 5574 5575 5577 5578 5578 5580 5581 5581 5581 5583 5585 5585 5586 5587 5587 5588 5589 5590 5590
5639 5639 5639 5638 5638 5637 5637 5636 5636 5635 5634 5633 5633 5631 5630 5629 5628 5627 5625 5623 5622 5620 5619 5617 5615 5612 5610 5608 5606 5604 5601 5599 5597 5595 5593 5591 5589 5587 5585 5584 5581 5580 5578 5576 5574 5573 5571 5570 5568 5568 5567 5566 5566 5566 5565 5565 5565 5565 5565 5565 5564 5563 5562 5564 5566 5567 5568 5568 5567 5568 5569 5570 5571 5572 5573 5574 5575 5576 5578 5579 5580 5580 5581 5582 5583 5584 5584
5638 5638 5637 5637 5637 5636 5635 5635 5634 5634 5633 5632 5631 5630 5629 5628 5626 5625 5623 5622 5620 5618 5616 5614 5613 5611 5608 5606 5604 5601 5599 5597 5595 5592 5590 5588 5586 5584 5583 5581 5579 5577 5576 5574 5572 5571 5569 5568 5566 5565 5564 5563 5563 5562 5562 5561 5561 5561 5561 5561 5560 5559 5559 5559 5560 5562 5563 5562 5562 5562 5563 5564 5564 5565 5566 5568 5569 5570 5572 5573 5574 5574 5575 5576 5577 5578 5579
5637 5637 5636 5636 5635 5635 5634 5634 5633 5632 5632 5631 5630 5628 5627 5626 5624 5623 5621 5619 5618 5616 5614 5612 5610 5608 5606 5604 5602 5599 5597 5595 5593 5590 5588 5586 5584 5582 5581 5580 5577 5575 5574 5573 5571 5569 5568 5566 5564 5563 5562 5561 5560 5560 5559 5559 5558 5558 5558 5557 5557 5556 5556 5555 5556 5557 5558 5558 5558 5557 5557 5558 5559 5560 5561 5562 5563 5564 5566 5567 5568 5569 5570 5571 5572 5573 5573
5636 5635 5635 5634 5634 5633 5633 5632 5632 5631 5630 5629 5628 5627 5625 5624 5622 5621 5619 5617 5615 5614 5612 5610 5608 5606 5603 5601 5599 5597 5595 5593 5591 5588 5586 5584 5582 5580 5579 5578 5575 5573 5572 5571 5569 5568 5567 5565 5563 5561 5560 5559 5558 5557 5557 5556 5556 5555 5555 5554 5554 5553 5553 5552 5552 5552 5553 5554 5555 5554 5553 5554 5555 5556 5557 5558 5559 5559 5561 5562 5563 5564 5565 5566 5567 5568 5568
5635 5634 5634 5633 5633 5632 5632 5631 5631 5630 5629 5628 5626 5625 5623 5622 5620 5619 5617 5615 5613 5611 5609 5607 5605 5603 5601 5599 5597 5594 5592 5590 5588 5586 5583 5581 5580 5578 5578 5576 5574 5572 5571 5570 5568 5566 5565 5564 5562 5560 5559 5558 5556 5556 5555 5554 5553 5553 5552 5552 5551 5551 5550 5549 5549 5549 5549 5550 5551 5551 5550 5550 5551 5552 5553 5554 5554 5555 5556 5557 5559 5560 5560 5561 5562 5563 5564
5633 5633 5633 5632 5632 5631 5631 5630 5629 5629 5627 5626 5625 5623 5622 5620 5618 5616 5615 5613 5611 5609 5607 5605 5602 5600 5598 5596 5594 5592 5590 5588 5586 5584 5581 5579 5577 5576 5575 5574 5572 5570 5569 5568 5567 5565 5564 5562 5561 5560 5558 5557 5556 5554 5553 5552 5551 5550 5550 5549 5549 5548 5548 5547 5546 5546 5546 5547 5547 5547 5547 5547 5548 5549 5549 5550 5550 5551 5552 5553 5554 5555 5556 5557 5558 5558 5559
5632 5632 5632 5631 5631 5630 5630 5629 5628 5627 5626 5624 5623 5621 5620 5618 5616 5614 5613 5611 5609 5606 5604 5602 5600 5598 5595 5593 5591 5589 5587 5585 5583 5581 5579 5577 5575 5573 5572 5571 5570 5568 5567 5566 5565 5564 5563 5561 5560 5559 5558 5556 5555 5554 5552 5551 5550 5549 5548 5547 5546 5546 5545 5544 5544 5543 5543 5543 5544 5544 5544 5544 5544 5545 5546 5546 5547 5547 5548 5549 5550 5551 5552 5553 5554 5555 5555
5631 5631 5631 5630 5630 5629 5628 5628 5627 5625 5624 5623 5621 5619 5618 5616 5614 5612 5610 5608 5606 5604 5602 5600 5598 5595 5593 5591 5589 5587 5584 5582 5580 5578 5576 5574 5572 5571 5569 5568 5567 5566 5565 5564 5563 5562 5561 5560 5559 5557 5556 5555 5554 5553 5551 5550 5549 5547 5546 5545 5544 5543 5543 5542 5541 5540 5540 5540 5540 5541 5541 5541 5541 5541 5542 5543 5543 5544 5545 5546 5547 5547 5548 5549 5550 5551 5552
5630 5630 5630 5629 5628 5628 5627 5626 5625 5623 5622 5621 5619 5618 5616 5614 5612 5610 5608 5606 5604 5602 5600 5597 5595 5593 5591 5588 5586 5584 5582 5580 5578 5575 5573 5571 5569 5568 5566 5565 5564 5563 5562 5561 5560 5559 5558 5557 5556 5555 5554 5553 5552 5551 5549 5548 5547 5546 5545 5543 5542 5541 5541 5540 5539 5538 5537 5537 5537 5537 5538 5538 5538 5538 5539 5539 5540 5541 5542 5542 5543 5544 5545 5546 5546 5547 5548
5629 5629 5628 5628 5627 5626 5625 5624 5623 5621 5620 5619 5617 5616 5614 5612 5610 5608 5606 5604 5602 5600 5597 5595 5593 5591 5588 5586 5584 5582 5580 5577 5576 5573 5571 5569 5567 5566 5564 5563 5561 5560 5560 5559 5557 5556 5555 5554 5553 5552 5551 5550 5549 5548 5547 5546 5545 5544 5543 5542 5541 5540 5539 5538 5537 5536 5535 5534 5534 5534 5534 5535 5535 5535 5535 5536 5537 5538 5539 5539 5540 5541 5541 5542 5543 5544 5545
5628 5627 5626 5626 5625 5624 5623 5622 5621 5619 5618 5616 5615 5613 5612 5610 5608 5606 5604 5602 5599 5597 5595 5593 5591 5589 5586 5584 5581 5579 5577 5574 5572 5571 5569 5567 5565 5564 5562 5560 5558 5557 5556 5556 5555 5553 5552 5551 5550 5549 5548 5547 5546 5545 5545 5544 5543 5542 5541 5540 5539 5538 5537 5536 5535 5534 5533 5532 5532 5531 5531 5532 5532 5533 5533 5533 5534 5535 5536 5537 5537 5538 5539 5539 5540 5541 5542
5626 5625 5624 5624 5623 5622 5621 5620 5618 5617 5616 5614 5613 5611 5610 5608 5606 5603 5601 5599 5597 5594 5592 5590 5588 5586 5583 5581 5579 5577 5574 5572 5569 5567 5566 5564 5562 5560 5559 5557 5555 5554 5553 5552 5551 5550 5549 5548 5546 5545 5544 5543 5543 5542 5541 5541 5540 5539 5539 5538 5537 5536 5535 5534 5533 5532 5531 5530 5530 5529 5529 5528 5529 5530 5530 5530 5531 5532 5533 5534 5534 5535 5536 5536 5537 5538 5539
5624 5623 5622 5622 5621 5620 5619 5617 5616 5615 5613 5612 5610 5609 5607 5605 5603 5601 5599 5597 5595 5592 5590 5587 5585 5583 5580 5578 5576 5574 5572 5570 5567 5565 5562 5561 5559 5558 5556 5554 5553 5551 5550 5548 5547 5546 5545 5544 5542 5541 5540 5539 5539 5538 5538 5537 5537 5536 5536 5535 5534 5533 5533 5532 5531 5530 5529 5528 5527 5527 5526 5526 5526 5527 5527 5528 5528 5529 5530 5531 5531 5532 5532 5533 5534 5535 5536
5621 5621 5620 5619 5619 5618 5616 5615 5614 5612 5611 5610 5608 5606 5605 5603 5601 5598 5596 5594 5592 5590 5587 5585 5582 5580 5577 5575 5573 5571 5569 5567 5565 5562 5560 5558 5556 5555 5553 5551 5549 5548 5546 5545 5543 5542 5541 5539 5538 5537 5536 5535 5535 5534 5534 5533 5533 5532 5532 5532 5531 5531 5530 5530 5529 5528 5527 5526 5525 5525 5524 5524 5523 5524 5524 5525 5525 5526 5526 5527 5528 5529 5529 5530 5531 5532 5533
5619 5618 5618 5617 5616 5615 5614 5613 5611 5610 5608 5607 5605 5604 5602 5600 5598 5596 5594 5591 5589 5587 5585 5582 5580 5577 5575 5572 5570 5568 5565 5563 5561 5559 5557 5555 5553 5552 5550 5548 5546 5544 5542 5541 5539 5538 5537 5536 5535 5534 5532 5531 5530 5530 5529 5529 5529 5529 5528 5528 5528 5528 5527 5527 5526 5525 5525 5524 5523 5522 5522 5521 5521 5521 5521 5521 5522 5523 5523 5524 5525 5525 5526 5526 5527 5528 5530
5617 5616 5615 5614 5613 5612 5611 5610 5609 5607 5606 5604 5602 5600 5599 5597 5595 5593 5590 5588 5586 5583 5581 5579 5577 5574 5572 5570 5567 5565 5562 5560 5558 5556 5554 5552 5550 5548 5546 5544 5543 5541 5539 5537 5535 5534 5533 5532 5531 5530 5529 5527 5526 5526 5525 5525 5525 5525 5525 5524 5524 5524 5524 5524 5523 5523 5522 5521 5521 5520 5520 5519 5519 5518 5518 5518 5519 5519 5520 5521 5521 5522 5522 5523 5524 5525 5526